When you browse on this site, cookies collect data to enhance your experience and personalize the content and advertising you see.
Visit our Privacy Policy to learn more. By continuing to use the site, you agree to this use of cookies and data.
  • In Czech Republic
  • List of Countries
  • For 7 days
  • Water Temperature
  • Satellite Maps
  • Weather Map
  • Weather Widgets
  • user-avatar
    Login

    Hourly Weather Middletown

    Today, 21 February, Thursday

    Time Temperature Precipitation Wind Pressure Humidity
    00:00 -1°C° 1.2 mm 3 mps 763 mmHg 93%
    01:00 +1°C° 0 mm 2 mps 761 mmHg 94%
    02:00 +1°C° 0.8 mm 2 mps 760 mmHg 95%
    03:00 +1°C° 0.8 mm 2 mps 759 mmHg 96%
    04:00 +2°C° 0.8 mm 1 mps 758 mmHg 97%
    05:00 +2°C° 0 mm 1 mps 757 mmHg 97%
    06:00 +2°C° 0 mm 1 mps 757 mmHg 97%
    07:00 +2°C° 0 mm 1 mps 756 mmHg 97%
    08:00 +3°C° 0 mm 2 mps 757 mmHg 94%
    09:00 +5°C° 0 mm 2 mps 757 mmHg 91%
    10:00 +5°C° 0 mm 3 mps 757 mmHg 87%
    11:00 +7°C° 0 mm 3 mps 757 mmHg 84%
    12:00 +8°C° 0 mm 3 mps 757 mmHg 80%
    13:00 +8°C° 0 mm 3 mps 757 mmHg 76%
    14:00 +8°C° 0 mm 3 mps 757 mmHg 75%
    15:00 +7°C° 0 mm 3 mps 758 mmHg 74%
    16:00 +7°C° 0 mm 3 mps 758 mmHg 73%
    17:00 +5°C° 0 mm 2 mps 759 mmHg 78%
    18:00 +3°C° 0 mm 2 mps 759 mmHg 83%
    19:00 +1°C° 0 mm 2 mps 760 mmHg 87%
    20:00 +1°C° 0 mm 2 mps 761 mmHg 87%
    21:00 -1°C° 0 mm 2 mps 762 mmHg 87%
    22:00 -1°C° 0 mm 2 mps 762 mmHg 86%
    23:00 -1°C° 0 mm 2 mps 763 mmHg 86%

    Tomorrow, 22 February, Friday

    Time Temperature Precipitation Wind Pressure Humidity
    00:00 -1°C° 0 mm 2 mps 763 mmHg 85%
    01:00 -1°C° 0 mm 2 mps 764 mmHg 84%
    02:00 -1°C° 0 mm 2 mps 764 mmHg 83%
    03:00 -1°C° 0 mm 2 mps 765 mmHg 82%
    04:00 -2°C° 0 mm 2 mps 765 mmHg 82%
    05:00 -2°C° 0 mm 2 mps 766 mmHg 81%
    06:00 -2°C° 0 mm 2 mps 766 mmHg 80%
    07:00 -2°C° 0 mm 2 mps 767 mmHg 79%
    08:00 -1°C° 0 mm 3 mps 768 mmHg 74%
    09:00 0°C° 0 mm 3 mps 768 mmHg 69%
    10:00 0°C° 0 mm 4 mps 769 mmHg 65%
    11:00 +1°C° 0 mm 4 mps 769 mmHg 63%
    12:00 +3°C° 0 mm 3 mps 769 mmHg 61%
    13:00 +4°C° 0 mm 3 mps 769 mmHg 59%
    14:00 +4°C° 0 mm 3 mps 769 mmHg 60%
    15:00 +4°C° 0 mm 3 mps 769 mmHg 62%
    16:00 +4°C° 0 mm 3 mps 769 mmHg 64%
    17:00 +3°C° 0 mm 2 mps 770 mmHg 69%
    18:00 +2°C° 0 mm 2 mps 770 mmHg 74%
    19:00 +1°C° 0 mm 2 mps 771 mmHg 79%
    20:00 -1°C° 0 mm 2 mps 771 mmHg 79%
    21:00 -1°C° 0 mm 2 mps 772 mmHg 80%
    22:00 -1°C° 0 mm 2 mps 772 mmHg 80%
    23:00 0°C° 0 mm 1 mps 772 mmHg 80%

    Day after tomorrow, 23 February, Saturday

    Time Temperature Precipitation Wind Pressure Humidity
    00:00 0°C° 0 mm 1 mps 772 mmHg 81%
    01:00 0°C° 0 mm 1 mps 772 mmHg 81%
    02:00 0°C° 0 mm 1 mps 772 mmHg 81%
    03:00 -1°C° 0 mm 1 mps 772 mmHg 81%
    04:00 -1°C° 0 mm 1 mps 772 mmHg 81%
    05:00 -1°C° 0 mm 1 mps 772 mmHg 81%
    06:00 -1°C° 0 mm 1 mps 772 mmHg 82%
    07:00 -2°C° 0 mm 0 mps 772 mmHg 82%
    08:00 +1°C° 0 mm 1 mps 772 mmHg 75%
    09:00 +2°C° 0 mm 1 mps 772 mmHg 69%
    10:00 +4°C° 0 mm 1 mps 772 mmHg 62%
    11:00 +5°C° 0 mm 1 mps 772 mmHg 61%
    12:00 +5°C° 0 mm 1 mps 771 mmHg 59%
    13:00 +5°C° 0 mm 2 mps 771 mmHg 58%
    14:00 +5°C° 0 mm 2 mps 770 mmHg 62%
    15:00 +4°C° 0 mm 2 mps 770 mmHg 67%
    16:00 +4°C° 0 mm 2 mps 769 mmHg 71%
    17:00 +3°C° 0 mm 2 mps 769 mmHg 77%
    18:00 +2°C° 0 mm 2 mps 769 mmHg 82%
    19:00 +1°C° 0 mm 2 mps 769 mmHg 88%
    20:00 +1°C° 0 mm 2 mps 768 mmHg 89%
    21:00 +2°C° 0 mm 1 mps 768 mmHg 89%
    22:00 +3°C° 0 mm 1 mps 767 mmHg 90%
    23:00 +2°C° 0 mm 2 mps 766 mmHg 91%

    24 February, Sunday

    Time Temperature Precipitation Wind Pressure Humidity
    00:00 +2°C° 0 mm 2 mps 765 mmHg 92%
    01:00 +2°C° 0 mm 2 mps 764 mmHg 93%
    02:00 +3°C° 0.4 mm 2 mps 763 mmHg 94%
    03:00 +2°C° 0.4 mm 3 mps 762 mmHg 95%
    04:00 +2°C° 0.4 mm 3 mps 761 mmHg 96%
    05:00 +3°C° 0.9 mm 3 mps 760 mmHg 97%
    06:00 +4°C° 0.9 mm 3 mps 758 mmHg 97%
    07:00 +5°C° 0.9 mm 4 mps 757 mmHg 97%
    08:00 +6°C° 1.6 mm 4 mps 756 mmHg 97%
    09:00 +7°C° 1.6 mm 5 mps 754 mmHg 96%
    10:00 +8°C° 1.6 mm 6 mps 753 mmHg 96%
    11:00 +8°C° 1.8 mm 5 mps 751 mmHg 96%
    12:00 +8°C° 1.8 mm 5 mps 749 mmHg 96%
    13:00 +8°C° 1.8 mm 4 mps 747 mmHg 97%
    14:00 +10°C° 0.2 mm 4 mps 746 mmHg 97%
    15:00 +10°C° 0.2 mm 3 mps 745 mmHg 97%
    16:00 +10°C° 0.2 mm 3 mps 743 mmHg 97%
    17:00 +10°C° 0.3 mm 4 mps 743 mmHg 90%
    18:00 +8°C° 0.3 mm 5 mps 744 mmHg 82%
    19:00 +8°C° 0.3 mm 5 mps 744 mmHg 75%
    20:00 +7°C° 0 mm 6 mps 744 mmHg 74%
    21:00 +5°C° 0 mm 6 mps 745 mmHg 72%
    22:00 +4°C° 0 mm 6 mps 745 mmHg 71%
    23:00 +3°C° 0 mm 6 mps 745 mmHg 70%

    25 February, Monday

    Time Temperature Precipitation Wind Pressure Humidity
    00:00 +2°C° 0 mm 6 mps 746 mmHg 69%
    01:00 +2°C° 0 mm 6 mps 746 mmHg 69%
    02:00 0°C° 0 mm 7 mps 746 mmHg 67%
    03:00 0°C° 0 mm 7 mps 746 mmHg 65%
    04:00 -1°C° 0 mm 7 mps 747 mmHg 63%
    05:00 -1°C° 0 mm 7 mps 747 mmHg 63%
    06:00 -2°C° 0 mm 7 mps 748 mmHg 62%
    07:00 -2°C° 0 mm 7 mps 749 mmHg 62%
    08:00 -2°C° 0 mm 8 mps 749 mmHg 57%
    09:00 -1°C° 0 mm 9 mps 750 mmHg 52%
    10:00 -1°C° 0 mm 9 mps 751 mmHg 47%
    11:00 -2°C° 0 mm 10 mps 751 mmHg 45%
    12:00 -2°C° 0 mm 10 mps 752 mmHg 43%
    13:00 -2°C° 0 mm 10 mps 753 mmHg 42%
    14:00 -2°C° 0 mm 10 mps 754 mmHg 42%
    15:00 -3°C° 0 mm 9 mps 755 mmHg 42%
    16:00 -3°C° 0 mm 9 mps 756 mmHg 42%
    17:00 -5°C° 0 mm 9 mps 757 mmHg 43%
    18:00 -6°C° 0 mm 8 mps 759 mmHg 44%
    19:00 -7°C° 0 mm 8 mps 760 mmHg 45%
    20:00 -8°C° 0 mm 7 mps 761 mmHg 43%
    21:00 -9°C° 0 mm 7 mps 762 mmHg 41%
    22:00 -9°C° 0 mm 7 mps 763 mmHg 40%
    23:00 -11°C° 0 mm 7 mps 764 mmHg 39%

    26 February, Tuesday

    Time Temperature Precipitation Wind Pressure Humidity
    00:00 -10°C° 0 mm 6 mps 765 mmHg 38%
    01:00 -11°C° 0 mm 6 mps 765 mmHg 37%
    02:00 -11°C° 0 mm 6 mps 766 mmHg 37%
    03:00 -11°C° 0 mm 6 mps 767 mmHg 37%
    04:00 -12°C° 0 mm 5 mps 768 mmHg 37%
    05:00 -12°C° 0 mm 5 mps 768 mmHg 37%
    06:00 -12°C° 0 mm 5 mps 769 mmHg 37%
    07:00 -12°C° 0 mm 5 mps 770 mmHg 36%
    08:00 -11°C° 0 mm 5 mps 770 mmHg 33%
    09:00 -10°C° 0 mm 5 mps 771 mmHg 30%
    10:00 -8°C° 0 mm 4 mps 771 mmHg 27%
    11:00 -7°C° 0 mm 4 mps 771 mmHg 25%
    12:00 -5°C° 0 mm 4 mps 770 mmHg 23%
    13:00 -3°C° 0 mm 4 mps 770 mmHg 22%
    14:00 -3°C° 0 mm 4 mps 770 mmHg 23%
    15:00 -1°C° 0 mm 3 mps 769 mmHg 25%
    16:00 -1°C° 0 mm 3 mps 769 mmHg 26%
    17:00 -2°C° 0 mm 2 mps 769 mmHg 31%
    18:00 -3°C° 0 mm 2 mps 769 mmHg 35%
    19:00 -2°C° 0 mm 1 mps 770 mmHg 40%
    20:00 -2°C° 0 mm 1 mps 769 mmHg 39%
    21:00 -2°C° 0 mm 1 mps 769 mmHg 39%
    22:00 -2°C° 0 mm 1 mps 769 mmHg 39%
    23:00 -2°C° 0 mm 1 mps 768 mmHg 40%
    Show more